Fargo, ND

2:07 PM CDT on July 21, 2017 (GMT -0500)
Hector International

Weather History for KFAR - April, 2014

Change the Weather History Date:

Sunday, April 20, 2014

  Actual Average Record
Temperature  
Mean Temperature 53 °F 47 °F  
Max Temperature 76 °F 59 °F 94 °F (1980)
Min Temperature 30 °F 35 °F 11 °F (1966)
Degree Days  
Heating Degree Days 12 18  
Month to date heating degree days 522 468  
Since 1 July heating degree days 9115 8298  
Cooling Degree Days 0 0  
Month to date cooling degree days 0 0  
Year to date cooling degree days 0 0  
Growing Degree Days 2 (Base 50)    
Moisture  
Dew Point 33 °F    
Average Humidity 55    
Maximum Humidity 92    
Minimum Humidity 18    
Precipitation  
Precipitation 0.00 in 0.05 in 1.17 in (2007)
Month to date precipitation 0.48 0.81  
Year to date precipitation 2.08 3.42  
Snow  
Snow 0.00 in 0.10 in 2.50 in (1920)
Month to date snowfall 2.0 2.3  
Since 1 July snowfall 34.9 49.4  
Snow Depth 0.00 in    
Sea Level Pressure  
Sea Level Pressure 29.97 in    
Wind  
Wind Speed 8 mph (South)    
Max Wind Speed 25 mph    
Max Gust Speed 32 mph    
Visibility 10 miles    
Events      
T = Trace of Precipitation, MM = Missing Value Source: NWS Daily Summary

Daily Weather History Graph

Daily Weather History Graph

Search for Another Location

Airport or City:

Trip Planner

Search our weather history database for the weather conditions in past years. The results will help you decide how hot, cold, wet, or windy it might be!

Date:

Astronomy

Apr. 20, 2014 Rise Set
Actual Time 6:30 AM CDT 8:22 PM CDT
Civil Twilight 5:58 AM CDT 8:55 PM CDT
Nautical Twilight 5:18 AM CDT 9:35 PM CDT
Astronomical Twilight 4:34 AM CDT 10:19 PM CDT
Moon 1:11 AM CDT (4/20) 10:44 AM CDT (4/20)
Length of Visible Light 14h 57m
Length of Day
13h 52m
Waning Gibbous, 68% of the Moon is Illuminated
Apr 20
Waning Gibbous
Apr 22
Last Quarter
Apr 29
New
May 6
First Quarter
May 14
Full

Hourly Weather History & Observations

Time (CDT) Temp. Windchill Dew Point Humidity Pressure Visibility Wind Dir Wind Speed Gust Speed Precip Events Conditions
12:53 AM 41.0 °F 39.0 °F 34.0 °F 76% 30.03 in 10.0 mi NE 3.5 mph - N/A   Clear
1:53 AM 37.0 °F 34.5 °F 33.1 °F 86% 30.04 in 10.0 mi ENE 3.5 mph - N/A   Clear
2:53 AM 37.9 °F - 33.1 °F 83% 30.04 in 10.0 mi Calm Calm - N/A   Clear
3:53 AM 35.1 °F 32.2 °F 32.0 °F 89% 30.04 in 10.0 mi South 3.5 mph - N/A   Clear
4:53 AM 34.0 °F - 30.9 °F 89% 30.04 in 9.0 mi Calm Calm - N/A   Clear
5:53 AM 30.0 °F - 28.0 °F 92% 30.05 in 10.0 mi Calm Calm - N/A   Clear
6:53 AM 30.9 °F - 28.9 °F 92% 30.05 in 7.0 mi Calm Calm - N/A   Clear
7:53 AM 39.0 °F - 35.1 °F 86% 30.05 in 10.0 mi Calm Calm - N/A   Clear
8:53 AM 48.9 °F - 36.0 °F 61% 30.04 in 10.0 mi Variable 5.8 mph - N/A   Clear
9:53 AM 54.0 °F - 35.1 °F 49% 30.03 in 10.0 mi South 6.9 mph - N/A   Clear
10:53 AM 59.0 °F - 36.0 °F 42% 30.02 in 10.0 mi SSE 9.2 mph - N/A   Clear
11:53 AM 63.0 °F - 37.9 °F 40% 30.02 in 10.0 mi South 12.7 mph - N/A   Clear
12:53 PM 66.9 °F - 37.0 °F 33% 30.00 in 10.0 mi SSE 13.8 mph - N/A   Clear
1:53 PM 71.1 °F - 37.0 °F 29% 29.98 in 10.0 mi SSE 11.5 mph - N/A   Clear
2:53 PM 73.0 °F - 33.1 °F 23% 29.96 in 10.0 mi South 10.4 mph - N/A   Clear
3:53 PM 73.9 °F - 28.9 °F 19% 29.94 in 10.0 mi SSW 10.4 mph - N/A   Clear
4:53 PM 75.9 °F - 28.9 °F 18% 29.92 in 10.0 mi SW 12.7 mph 18.4 mph N/A   Clear
5:53 PM 73.9 °F - 30.0 °F 20% 29.91 in 10.0 mi SSW 10.4 mph - N/A   Clear
6:53 PM 73.0 °F - 30.9 °F 21% 29.89 in 10.0 mi South 11.5 mph - N/A   Clear
7:53 PM 70.0 °F - 35.1 °F 28% 29.88 in 10.0 mi SSE 10.4 mph - N/A   Clear
8:53 PM 66.0 °F - 37.0 °F 34% 29.87 in 10.0 mi SSE 10.4 mph - N/A   Clear
9:53 PM 64.9 °F - 36.0 °F 34% 29.86 in 10.0 mi SSE 15.0 mph - N/A   Clear
10:53 PM 62.1 °F - 37.0 °F 39% 29.86 in 10.0 mi South 12.7 mph - N/A   Partly Cloudy
11:06 PM 63.0 °F - 34.0 °F 34% 29.89 in 10.0 mi WSW 12.7 mph 31.1 mph N/A   Partly Cloudy
11:53 PM 57.0 °F - 33.1 °F 40% 29.92 in 10.0 mi NNW 8.1 mph - N/A   Clear